LILACSAT-1 (LO-90) (42725 NORAD) Tracking and Keplerian Element Data

This shows tracking and keplerian element data for the satellite.

Feedback or suggestion? Click here.




ElementValue
Catalog42725
NameLILACSAT-1 (LO-90)
Epoch Orbit10556
Epoch Day87.71781172
Epoch Year2019
RAAN319.7683
Inclination51.6064
Eccentricity0.0009359
Argument of Perigee299.6698
Mean Anonmoly60.557
Mean Motion16.44549673
Decay Rate0.15670676
L11 42725U 98067ME 19087.71781172 .15670676 12603-4 45746-3 0 9992
L22 42725 51.6064 319.7683 0009359 299.6698 60.5570 16.44549673105565

Live tracking and technical data element details for LILACSAT-1 (LO-90) (NORAD 42725). LILACSAT-1 (LO-90) can be tracked NOW for your location showing map with azimuth and elevation plus other details from your city location.

Track the satellite on the map from your city or location and see movement details for azimuth, elevation, latitude, longitude, range, height, and movement on the map or in text.







IsCatalogInMostPopularTable: catalog: 42725, numindb: 370
Update: records affected: 1



GetName: 42725 LILACSAT-1 (LO-90)

Hit Count: updated at: Thu, 19 Sep 2019 16:47:59 GMT